Miscellaneous Local Product
Issued by NWS North Platte, NE

Home | Current Version | Previous Version | Text Only | Print | Product List | Glossary On
Versions: 1 2 3 4 5 6 7 8 9 10 11 12 13 14 15 16 17 18 19 20 21 22 23 24 25 26 27 28 29 30 31 32 33 34 35 36 37 38 39 40 41 42 43 44 45 46 47 48 49 50
000
AXUS43 KLBF 221810
MISLBF


WESTERN AND NORTH CENTRAL NEBRASKA HOURLY WEATHER ROUNDUP
NATIONAL WEATHER SERVICE NORTH PLATTE NE
100 PM CDT MON SEP 22 2014

***STATIONS NOT REPORTING VARIABLES SUCH AS SKY/WEATHER OR
PRESSURE ARE PROVIDED BY THE NEBRASKA DEPARTMENT OF
ROADS...RAWS...AND APRS NETWORKS...AND ARE NOT UNDER
NATIONAL WEATHER SERVICE QUALITY CONTROL***

...OBSERVATIONS IN AND NEAR THE EASTERN PANHANDLE OF NEBRASKA...

CITY           SKY/WX    TMP DP  RH WIND       PRES   REMARKS
PINE RIDGE     PTSUNNY   73  49  42 S23G30    30.06F
CHADRON        CLOUDY    71  48  43 S16G29    30.04F
SIDNEY         CLOUDY    70  52  52 S22G32    30.17F
WHITECLAY        N/A     71  47  42 S24         N/A
RUSHVILLE        N/A     71  42  35 S28         N/A
CRESCENT LAKE    N/A     59  44  56 S10         N/A
LISCO            N/A     64  55  72 E10         N/A
BIG SPRINGS      N/A     64  48  56 S9          N/A
$$

...OBSERVATIONS IN NORTH CENTRAL NEBRASKA...

CITY           SKY/WX    TMP DP  RH WIND       PRES   REMARKS
VALENTINE      CLOUDY    70  43  37 S20       30.15F
THEDFORD       CLOUDY    70  44  39 S16G23    30.21F
AINSWORTH      CLOUDY    68  44  41 S20G25    30.19F
O`NEILL        MOSUNNY   73  50  44 S16G22    30.22F
ORD            PTSUNNY   71  49  45 S16G22    30.23F
BROKEN BOW     CLOUDY    69  48  47 S17G25    30.23F
SPRINGVIEW       N/A     72  49  43 SW10G18     N/A
ROSE             N/A     74  53  47 E16         N/A
NEWPORT          N/A     75  49  39 S18         N/A
COMSTOCK         N/A     73  51  45 S8          N/A
CHAMBERS         N/A     73  49  43 S6G15       N/A
$$

...OBSERVATIONS IN SOUTHWEST NEBRASKA AND FAR NORTHEAST COLORADO...

CITY           SKY/WX    TMP DP  RH WIND       PRES   REMARKS
WRAY           LGT RAIN  63  56  78 E7        30.21F
HOLYOKE        LGT RAIN  59  54  82 S10       30.19F
IMPERIAL       CLOUDY    68  44  42 S17G25    30.21F
OGALLALA       CLOUDY    65  49  56 SE7G17    30.20S
NORTH PLATTE   CLOUDY    67  46  47 S13       30.22S
MCCOOK         LGT RAIN  72  43  35 S17G23    30.23F
LEXINGTON      PTSUNNY   71  48  43 S16G23    30.24F
PAXTON           N/A     68  46  44 SE14        N/A
SUTHERLAND       N/A     68  40  36 S14         N/A
BRADY            N/A     70  49  46 CALM        N/A
GOTHENBURG       N/A     66  43  44 S12         N/A
CALLAWAY         N/A     66  50  56 S20         N/A
$$

...SOME WEATHER OBSERVATIONS FROM AROUND THE REGION...

CITY           SKY/WX    TMP DP  RH WIND       PRES   REMARKS
DENVER         PTSUNNY   70  53  54 SE8       30.18F
LARAMIE        HVY RAIN  50  47  89 W21G45    30.31R FOG
CHEYENNE       MOSUNNY   71  50  47 S15       30.19F
SCOTTSBLUFF    CLOUDY    64  55  72 S12       30.12F
RAPID CITY     SUNNY     75  46  35 S21G28    30.00F
PIERRE         MOSUNNY   76  46  34 SE16      30.07F
WINNER         FAIR      76  45  33 S22G28    30.13F
SIOUX FALLS    PTSUNNY   70  47  43 S10       30.23F
OMAHA          MOSUNNY   69  48  47 S8        30.29F
GRAND ISLAND   MOSUNNY   71  48  43 S9        30.27F
KANSAS CITY    MOSUNNY   71  51  49 NE5       30.30F
WICHITA        PTSUNNY   74  42  31 CALM      30.29F
HAYS           MOSUNNY   73  48  40 S16       30.28F
LIBERAL        PTSUNNY   73  45  35 S16G23    30.32F
GOODLAND       PTSUNNY   76  48  37 S25G35    30.23F
$$



USA.gov is the U.S. government's official web portal to all federal, state and local government web resources and services.